World > North America > United States > New York

Hourly Springvale, NY Regional Weather

Feedback E-mail the Weather

Latest News

Springvale, NY Weather Maps

°F °C°F °C
Springvale Weather Map
UTC Time: 5/26/2022, 17:23
Your Time:

Springvale, NY Regional Weather

Expires:202205261700;;611964
ASUS41 KALY 261610
RWRALY

NEW YORK STATE HOURLY WEATHER ROUNDUP
NATIONAL WEATHER SERVICE ALBANY NY
1200 PM EDT THU MAY 26 2022

NOTE: "FAIR" INDICATES FEW OR NO CLOUDS BELOW 12,000 FEET WITH NO
SIGNIFICANT WEATHER AND/OR NO OBSTRUCTIONS TO VISIBILITY.


NYZ005>009-017-018-044>046-055-056-261700-
CENTRAL

  
CITY           SKY/WX    TMP DP  RH WIND       PRES   REMARKS
FULTON         CLOUDY    72  52  49 S16G23    30.05F                  
SYRACUSE       PTSUNNY   73  51  46 S15       30.07F                  
ROME           PTSUNNY   74  48  39 SE12      30.11F                  
ELMIRA         MOSUNNY   72  53  51 S14       30.11F                  
BINGHAMTON     MOSUNNY   66  51  58 S14G24    30.16F                  
MONTICELLO     CLOUDY    64  48  56 S12       30.25F                  
$$


SKY/WX - Weather  TMP - Temperature  DP - Dew Point  RH - Humidity
WIND - Wind Direction/Speed PRES - Barometric Pressure VSB - Visibility
WCI - Wind Chill Index E13G22 Wind - East Wind 13 mph/Gusts of 22 mph

Trending Headlines

Springvale Radar Loop



Springvale Quick Facts


National Two Day Weather Forecast


E-mail the Springvale Weather Forecast

Voice your opinion or tell us about page issues...